User: anonymous   Login
Location: Caltech
(34.1382°N, 118.1253°W)
Time: 16:37:52
(UTC-08:00)
Language:

PANSAT - Orbit

View from above orbital plane
View from above orbital plane
View from above satellite
View from above satellite

Ground track
Ground track

The orbit data is extracted from the following two-line orbital elements,

1 25520U 98064B   17347.25752489  .00000779  00000-0  19390-4 0  9994
2 25520  28.4577 204.4899 0005099 187.5934 172.4585 15.28664365 61718
Epoch (UTC): 13 December 2017 06:10:50
Eccentricity: 0.0005099
inclination: 28.4577°
perigee height: 476 km
apogee height: 483 km
right ascension of ascending node: 204.4899°
argument of perigee: 187.5934°
revolutions per day: 15.28664365
mean anomaly at epoch: 172.4585°
orbit number at epoch: 6171

The dashed part of the orbit path shows where the satellite is in the earth's shadow,  

DLR